"Time","Value","Approval","myLocation"
"2023-04-20 00:00",3.03119848277577,"Approved","OW406"
"2023-04-20 01:00",3.03319910458898,"Approved","OW406"
"2023-04-20 02:00",3.03319972640219,"Approved","OW406"
"2023-04-20 03:00",3.0342003482154,"Approved","OW406"
"2023-04-20 04:00",3.0342009700286,"Approved","OW406"
"2023-04-20 05:00",3.03520159184181,"Approved","OW406"
"2023-04-20 06:00",3.03520221365502,"Approved","OW406"
"2023-04-20 07:00",3.03520283546823,"Approved","OW406"
"2023-04-20 08:00",3.03520345728143,"Approved","OW406"
"2023-04-20 09:00",3.03620407909464,"Approved","OW406"
"2023-04-20 10:00",3.03620470090785,"Approved","OW406"
"2023-04-20 11:00",3.03620532272105,"Approved","OW406"
"2023-04-20 12:00",3.03620594453426,"Approved","OW406"
"2023-04-20 13:00",3.03520656634747,"Approved","OW406"
"2023-04-20 14:00",3.03620718816068,"Approved","OW406"
"2023-04-20 15:00",3.03520780997388,"Approved","OW406"
"2023-04-20 16:00",3.03520843178709,"Approved","OW406"
"2023-04-20 17:00",3.0352090536003,"Approved","OW406"
"2023-04-20 18:00",3.03420967541351,"Approved","OW406"
"2023-04-20 19:00",3.03421029722671,"Approved","OW406"
"2023-04-20 20:00",3.03321091903992,"Approved","OW406"
"2023-04-20 21:00",3.03321154085313,"Approved","OW406"
"2023-04-20 22:00",3.03221216266633,"Approved","OW406"
"2023-04-20 23:00",3.03221278447954,"Approved","OW406"
"2023-04-21 00:00",3.03221340629275,"Approved","OW406"
"2023-04-21 01:00",3.03221402810596,"Approved","OW406"
"2023-04-21 02:00",3.03221464991916,"Approved","OW406"
"2023-04-21 03:00",3.03321527173237,"Approved","OW406"
"2023-04-21 04:00",3.03321589354558,"Approved","OW406"
"2023-04-21 05:00",3.03321651535879,"Approved","OW406"
"2023-04-21 06:00",3.03221713717199,"Approved","OW406"
"2023-04-21 07:00",3.0322177589852,"Approved","OW406"
"2023-04-21 08:00",3.03121838079841,"Approved","OW406"
"2023-04-21 09:00",3.03221900261162,"Approved","OW406"
"2023-04-21 10:00",3.03121962442482,"Approved","OW406"
"2023-04-21 11:00",3.03222024623803,"Approved","OW406"
"2023-04-21 12:00",3.03222086805124,"Approved","OW406"
"2023-04-21 13:00",3.03322148986444,"Approved","OW406"
"2023-04-21 14:00",3.03222211167765,"Approved","OW406"
"2023-04-21 15:00",3.03322273349086,"Approved","OW406"
"2023-04-21 16:00",3.03322335530407,"Approved","OW406"
"2023-04-21 17:00",3.03322397711727,"Approved","OW406"
"2023-04-21 18:00",3.03222459893048,"Approved","OW406"
"2023-04-21 19:00",3.03222522074369,"Approved","OW406"
"2023-04-21 20:00",3.0332258425569,"Approved","OW406"
"2023-04-21 21:00",3.0322264643701,"Approved","OW406"
"2023-04-21 22:00",3.03222708618331,"Approved","OW406"
"2023-04-21 23:00",3.03222770799652,"Approved","OW406"
"2023-04-22 00:00",3.03222832980973,"Approved","OW406"
"2023-04-22 01:00",3.03222895162293,"Approved","OW406"
"2023-04-22 02:00",3.03222957343614,"Approved","OW406"
"2023-04-22 03:00",3.03223019524935,"Approved","OW406"
"2023-04-22 04:00",3.03223081706255,"Approved","OW406"
"2023-04-22 05:00",3.03223143887576,"Approved","OW406"
"2023-04-22 06:00",3.03223206068897,"Approved","OW406"
"2023-04-22 07:00",3.03223268250218,"Approved","OW406"
"2023-04-22 08:00",3.03223330431538,"Approved","OW406"
"2023-04-22 09:00",3.03223392612859,"Approved","OW406"
"2023-04-22 10:00",3.0322345479418,"Approved","OW406"
"2023-04-22 11:00",3.03223516975501,"Approved","OW406"
"2023-04-22 12:00",3.03223579156821,"Approved","OW406"
"2023-04-22 13:00",3.03123641338142,"Approved","OW406"
"2023-04-22 14:00",3.03123703519463,"Approved","OW406"
"2023-04-22 15:00",3.03123765700783,"Approved","OW406"
"2023-04-22 16:00",3.03123827882104,"Approved","OW406"
"2023-04-22 17:00",3.03123890063425,"Approved","OW406"
"2023-04-22 18:00",3.03123952244746,"Approved","OW406"
"2023-04-22 19:00",3.03124014426066,"Approved","OW406"
"2023-04-22 20:00",3.03024076607387,"Approved","OW406"
"2023-04-22 21:00",3.03024138788708,"Approved","OW406"
"2023-04-22 22:00",3.02824200970029,"Approved","OW406"
"2023-04-22 23:00",3.02924263151349,"Approved","OW406"
"2023-04-23 00:00",3.0292432533267,"Approved","OW406"
"2023-04-23 01:00",3.02924387513991,"Approved","OW406"
"2023-04-23 02:00",3.02924449695312,"Approved","OW406"
"2023-04-23 03:00",3.02824511876632,"Approved","OW406"
"2023-04-23 04:00",3.02824574057953,"Approved","OW406"
"2023-04-23 05:00",3.02924636239274,"Approved","OW406"
"2023-04-23 06:00",3.02824698420594,"Approved","OW406"
"2023-04-23 07:00",3.02824760601915,"Approved","OW406"
"2023-04-23 08:00",3.02824822783236,"Approved","OW406"
"2023-04-23 09:00",3.02724884964557,"Approved","OW406"
"2023-04-23 10:00",3.02724947145877,"Approved","OW406"
"2023-04-23 11:00",3.02625009327198,"Approved","OW406"
"2023-04-23 12:00",3.02525071508519,"Approved","OW406"
"2023-04-23 13:00",3.0252513368984,"Approved","OW406"
"2023-04-23 14:00",3.0242519587116,"Approved","OW406"
"2023-04-23 15:00",3.02325258052481,"Approved","OW406"
"2023-04-23 16:00",3.02325320233802,"Approved","OW406"
"2023-04-23 17:00",3.02225382415122,"Approved","OW406"
"2023-04-23 18:00",3.02025444596443,"Approved","OW406"
"2023-04-23 19:00",3.01825506777764,"Approved","OW406"
"2023-04-23 20:00",3.01625568959085,"Approved","OW406"
"2023-04-23 21:00",3.01525631140405,"Approved","OW406"
"2023-04-23 22:00",3.01425693321726,"Approved","OW406"
"2023-04-23 23:00",3.01325755503047,"Approved","OW406"
"2023-04-24 00:00",3.01225817684368,"Approved","OW406"
"2023-04-24 01:00",3.01225879865688,"Approved","OW406"
"2023-04-24 02:00",3.01125942047009,"Approved","OW406"
"2023-04-24 03:00",3.0102600422833,"Approved","OW406"
"2023-04-24 04:00",3.01026066409651,"Approved","OW406"
"2023-04-24 05:00",3.00926128590971,"Approved","OW406"
"2023-04-24 06:00",3.00926190772292,"Approved","OW406"
"2023-04-24 07:00",3.00826252953613,"Approved","OW406"
"2023-04-24 08:00",3.00826315134933,"Approved","OW406"
"2023-04-24 09:00",3.00726377316254,"Approved","OW406"
"2023-04-24 10:00",3.00626439497575,"Approved","OW406"
"2023-04-24 11:00",3.00626501678896,"Approved","OW406"
"2023-04-24 12:00",3.00526563860216,"Approved","OW406"
"2023-04-24 13:00",3.00426626041537,"Approved","OW406"
"2023-04-24 14:00",3.00326688222858,"Approved","OW406"
"2023-04-24 15:00",3.00426750404179,"Approved","OW406"
"2023-04-24 16:00",3.00326812585499,"Approved","OW406"
"2023-04-24 17:00",3.0032687476682,"Approved","OW406"
"2023-04-24 18:00",3.00226936948141,"Approved","OW406"
"2023-04-24 19:00",3.00226999129462,"Approved","OW406"
"2023-04-24 20:00",3.00227061310782,"Approved","OW406"
"2023-04-24 21:00",3.00127123492103,"Approved","OW406"
"2023-04-24 22:00",3.00127185673424,"Approved","OW406"
"2023-04-24 23:00",3.00027247854744,"Approved","OW406"
"2023-04-25 00:00",3.00127310036065,"Approved","OW406"
"2023-04-25 01:00",3.00027372217386,"Approved","OW406"
"2023-04-25 02:00",3.00027434398707,"Approved","OW406"
"2023-04-25 03:00",3.00127496580027,"Approved","OW406"
"2023-04-25 04:00",3.00027558761348,"Approved","OW406"
"2023-04-25 05:00",3.00127620942669,"Approved","OW406"
"2023-04-25 06:00",3.0002768312399,"Approved","OW406"
"2023-04-25 07:00",3.0012774530531,"Approved","OW406"
"2023-04-25 08:00",3.00127807486631,"Approved","OW406"
"2023-04-25 09:00",3.00127869667952,"Approved","OW406"
"2023-04-25 10:00",3.00127931849272,"Approved","OW406"
"2023-04-25 11:00",3.00027994030593,"Approved","OW406"
"2023-04-25 12:00",3.00128056211914,"Approved","OW406"
"2023-04-25 13:00",3.00128118393235,"Approved","OW406"
"2023-04-25 14:00",3.00028180574555,"Approved","OW406"
"2023-04-25 15:00",3.00128242755876,"Approved","OW406"
"2023-04-25 16:00",3.00128304937197,"Approved","OW406"
"2023-04-25 17:00",3.00128367118518,"Approved","OW406"
"2023-04-25 18:00",3.00128429299838,"Approved","OW406"
"2023-04-25 19:00",3.00028491481159,"Approved","OW406"
"2023-04-25 20:00",3.0002855366248,"Approved","OW406"
"2023-04-25 21:00",3.00028615843801,"Approved","OW406"
"2023-04-25 22:00",3.00028678025121,"Approved","OW406"
"2023-04-25 23:00",3.00028740206442,"Approved","OW406"
"2023-04-26 00:00",3.00028802387763,"Approved","OW406"
"2023-04-26 01:00",3.00028864569083,"Approved","OW406"
"2023-04-26 02:00",3.00028926750404,"Approved","OW406"
"2023-04-26 03:00",3.00028988931725,"Approved","OW406"
"2023-04-26 04:00",3.00129051113046,"Approved","OW406"
"2023-04-26 05:00",3.00129113294366,"Approved","OW406"
"2023-04-26 06:00",3.00129175475687,"Approved","OW406"
"2023-04-26 07:00",3.00129237657008,"Approved","OW406"
"2023-04-26 08:00",3.00229299838329,"Approved","OW406"
"2023-04-26 09:00",3.00229362019649,"Approved","OW406"
"2023-04-26 10:00",3.0022942420097,"Approved","OW406"
"2023-04-26 11:00",3.00229486382291,"Approved","OW406"
"2023-04-26 12:00",3.00229548563612,"Approved","OW406"
"2023-04-26 13:00",3.00229610744932,"Approved","OW406"
"2023-04-26 14:00",3.00229672926253,"Approved","OW406"
"2023-04-26 15:00",3.00229735107574,"Approved","OW406"
"2023-04-26 16:00",3.00229797288894,"Approved","OW406"
"2023-04-26 17:00",3.00229859470215,"Approved","OW406"
"2023-04-26 18:00",3.00229921651536,"Approved","OW406"
"2023-04-26 19:00",3.00229983832857,"Approved","OW406"
"2023-04-26 20:00",3.00230046014177,"Approved","OW406"
"2023-04-26 21:00",3.00230108195498,"Approved","OW406"
"2023-04-26 22:00",3.00230170376819,"Approved","OW406"
"2023-04-26 23:00",3.0013023255814,"Approved","OW406"
"2023-04-27 00:00",3.0023029473946,"Approved","OW406"
"2023-04-27 01:00",3.00230356920781,"Approved","OW406"
"2023-04-27 02:00",3.00230419102102,"Approved","OW406"
"2023-04-27 03:00",3.00330481283422,"Approved","OW406"
"2023-04-27 04:00",3.00330543464743,"Approved","OW406"
"2023-04-27 05:00",3.00330605646064,"Approved","OW406"
"2023-04-27 06:00",3.00330667827385,"Approved","OW406"
"2023-04-27 07:00",3.00430730008705,"Approved","OW406"
"2023-04-27 08:00",3.00530792190026,"Approved","OW406"
"2023-04-27 09:00",3.00530854371347,"Approved","OW406"
"2023-04-27 10:00",3.00530916552668,"Approved","OW406"
"2023-04-27 11:00",3.00530978733988,"Approved","OW406"
"2023-04-27 12:00",3.00631040915309,"Approved","OW406"
"2023-04-27 13:00",3.0063110309663,"Approved","OW406"
"2023-04-27 14:00",3.0063116527795,"Approved","OW406"
"2023-04-27 15:00",3.00731227459271,"Approved","OW406"
"2023-04-27 16:00",3.00731289640592,"Approved","OW406"
"2023-04-27 17:00",3.00631351821913,"Approved","OW406"
"2023-04-27 18:00",3.00731414003233,"Approved","OW406"
"2023-04-27 19:00",3.00731476184554,"Approved","OW406"
"2023-04-27 20:00",3.00631538365875,"Approved","OW406"
"2023-04-27 21:00",3.00631600547196,"Approved","OW406"
"2023-04-27 22:00",3.00631662728516,"Approved","OW406"
"2023-04-27 23:00",3.00631724909837,"Approved","OW406"
"2023-04-28 00:00",3.00631787091158,"Approved","OW406"
"2023-04-28 01:00",3.00731849272479,"Approved","OW406"
"2023-04-28 02:00",3.00731911453799,"Approved","OW406"
"2023-04-28 03:00",3.0083197363512,"Approved","OW406"
"2023-04-28 04:00",3.00832035816441,"Approved","OW406"
"2023-04-28 05:00",3.00832097997761,"Approved","OW406"
"2023-04-28 06:00",3.00932160179082,"Approved","OW406"
"2023-04-28 07:00",3.00932222360403,"Approved","OW406"
"2023-04-28 08:00",3.00932284541724,"Approved","OW406"
"2023-04-28 09:00",3.00932346723044,"Approved","OW406"
"2023-04-28 10:00",3.01032408904365,"Approved","OW406"
"2023-04-28 11:00",3.01132471085686,"Approved","OW406"
"2023-04-28 12:00",3.01032533267007,"Approved","OW406"
"2023-04-28 13:00",3.01032595448327,"Approved","OW406"
"2023-04-28 14:00",3.01132657629648,"Approved","OW406"
"2023-04-28 15:00",3.01132719810969,"Approved","OW406"
"2023-04-28 16:00",3.0113278199229,"Approved","OW406"
"2023-04-28 17:00",3.0113284417361,"Approved","OW406"
"2023-04-28 18:00",3.01132906354931,"Approved","OW406"
"2023-04-28 19:00",3.01132968536252,"Approved","OW406"
"2023-04-28 20:00",3.01133030717572,"Approved","OW406"
"2023-04-28 21:00",3.01133092898893,"Approved","OW406"
"2023-04-28 22:00",3.01133155080214,"Approved","OW406"
"2023-04-28 23:00",3.01133217261535,"Approved","OW406"
"2023-04-29 00:00",3.01133279442855,"Approved","OW406"
"2023-04-29 01:00",3.01333341624176,"Approved","OW406"
"2023-04-29 02:00",3.01333403805497,"Approved","OW406"
"2023-04-29 03:00",3.01333465986818,"Approved","OW406"
"2023-04-29 04:00",3.01533528168138,"Approved","OW406"
"2023-04-29 05:00",3.01533590349459,"Approved","OW406"
"2023-04-29 06:00",3.0173365253078,"Approved","OW406"
"2023-04-29 07:00",3.017337147121,"Approved","OW406"
"2023-04-29 08:00",3.01933776893421,"Approved","OW406"
"2023-04-29 09:00",3.02033839074742,"Approved","OW406"
"2023-04-29 10:00",3.02033901256063,"Approved","OW406"
"2023-04-29 11:00",3.02133963437383,"Approved","OW406"
"2023-04-29 12:00",3.02234025618704,"Approved","OW406"
"2023-04-29 13:00",3.02334087800025,"Approved","OW406"
"2023-04-29 14:00",3.02334149981346,"Approved","OW406"
"2023-04-29 15:00",3.02434212162666,"Approved","OW406"
"2023-04-29 16:00",3.02534274343987,"Approved","OW406"
"2023-04-29 17:00",3.02534336525308,"Approved","OW406"
"2023-04-29 18:00",3.02634398706628,"Approved","OW406"
"2023-04-29 19:00",3.02634460887949,"Approved","OW406"
"2023-04-29 20:00",3.0273452306927,"Approved","OW406"
"2023-04-29 21:00",3.02734585250591,"Approved","OW406"
"2023-04-29 22:00",3.02734647431911,"Approved","OW406"
"2023-04-29 23:00",3.02734709613232,"Approved","OW406"
"2023-04-30 00:00",3.02734771794553,"Approved","OW406"
"2023-04-30 01:00",3.02934833975874,"Approved","OW406"
"2023-04-30 02:00",3.02934896157194,"Approved","OW406"
"2023-04-30 03:00",3.02934958338515,"Approved","OW406"
"2023-04-30 04:00",3.03135020519836,"Approved","OW406"
"2023-04-30 05:00",3.03135082701157,"Approved","OW406"
"2023-04-30 06:00",3.03135144882477,"Approved","OW406"
"2023-04-30 07:00",3.03235207063798,"Approved","OW406"
"2023-04-30 08:00",3.03335269245119,"Approved","OW406"
"2023-04-30 09:00",3.03435331426439,"Approved","OW406"
"2023-04-30 10:00",3.0343539360776,"Approved","OW406"
"2023-04-30 11:00",3.03535455789081,"Approved","OW406"
"2023-04-30 12:00",3.03535517970402,"Approved","OW406"
"2023-04-30 13:00",3.03635580151722,"Approved","OW406"
"2023-04-30 14:00",3.03735642333043,"Approved","OW406"
"2023-04-30 15:00",3.03735704514364,"Approved","OW406"
"2023-04-30 16:00",3.03735766695685,"Approved","OW406"
"2023-04-30 17:00",3.03835828877005,"Approved","OW406"
"2023-04-30 18:00",3.03835891058326,"Approved","OW406"
"2023-04-30 19:00",3.03835953239647,"Approved","OW406"
"2023-04-30 20:00",3.03936015420968,"Approved","OW406"
"2023-04-30 21:00",3.03936077602288,"Approved","OW406"
"2023-04-30 22:00",3.03936139783609,"Approved","OW406"
"2023-04-30 23:00",3.0393620196493,"Approved","OW406"
"2023-05-01 00:00",3.0403626414625,"Approved","OW406"
"2023-05-01 01:00",3.04036326327571,"Approved","OW406"
"2023-05-01 02:00",3.04136388508892,"Approved","OW406"
"2023-05-01 03:00",3.04136450690213,"Approved","OW406"
"2023-05-01 04:00",3.04236512871533,"Approved","OW406"
"2023-05-01 05:00",3.04236575052854,"Approved","OW406"
"2023-05-01 06:00",3.04236637234175,"Approved","OW406"
"2023-05-01 07:00",3.04336699415496,"Approved","OW406"
"2023-05-01 08:00",3.04336761596816,"Approved","OW406"
"2023-05-01 09:00",3.04336823778137,"Approved","OW406"
"2023-05-01 10:00",3.04436885959458,"Approved","OW406"
"2023-05-01 11:00",3.04336948140779,"Approved","OW406"
"2023-05-01 12:00",3.04437010322099,"Approved","OW406"
"2023-05-01 13:00",3.0443707250342,"Approved","OW406"
"2023-05-01 14:00",3.04437134684741,"Approved","OW406"
"2023-05-01 15:00",3.04437196866061,"Approved","OW406"
"2023-05-01 16:00",3.04537259047382,"Approved","OW406"
"2023-05-01 17:00",3.04537321228703,"Approved","OW406"
"2023-05-01 18:00",3.04537383410024,"Approved","OW406"
"2023-05-01 19:00",3.04537445591344,"Approved","OW406"
"2023-05-01 20:00",3.04537507772665,"Approved","OW406"
"2023-05-01 21:00",3.04537569953986,"Approved","OW406"
"2023-05-01 22:00",3.04437632135307,"Approved","OW406"
"2023-05-01 23:00",3.04537694316627,"Approved","OW406"
"2023-05-02 00:00",3.04537756497948,"Approved","OW406"
"2023-05-02 01:00",3.04437818679269,"Approved","OW406"
"2023-05-02 02:00",3.04437880860589,"Approved","OW406"
"2023-05-02 03:00",3.0433794304191,"Approved","OW406"
"2023-05-02 04:00",3.04338005223231,"Approved","OW406"
"2023-05-02 05:00",3.04338067404552,"Approved","OW406"
"2023-05-02 06:00",3.04338129585872,"Approved","OW406"
"2023-05-02 07:00",3.04238191767193,"Approved","OW406"
"2023-05-02 08:00",3.04438253948514,"Approved","OW406"
"2023-05-02 09:00",3.04338316129835,"Approved","OW406"
"2023-05-02 10:00",3.04438378311155,"Approved","OW406"
"2023-05-02 11:00",3.04438440492476,"Approved","OW406"
"2023-05-02 12:00",3.04438502673797,"Approved","OW406"
"2023-05-02 13:00",3.04238564855117,"Approved","OW406"
"2023-05-02 14:00",3.04238627036438,"Approved","OW406"
"2023-05-02 15:00",3.04238689217759,"Approved","OW406"
"2023-05-02 16:00",3.0413875139908,"Approved","OW406"
"2023-05-02 17:00",3.041388135804,"Approved","OW406"
"2023-05-02 18:00",3.04138875761721,"Approved","OW406"
"2023-05-02 19:00",3.04038937943042,"Approved","OW406"
"2023-05-02 20:00",3.04039000124363,"Approved","OW406"
"2023-05-02 21:00",3.03939062305683,"Approved","OW406"
"2023-05-02 22:00",3.03939124487004,"Approved","OW406"
"2023-05-02 23:00",3.03839186668325,"Approved","OW406"
"2023-05-03 00:00",3.03939248849646,"Approved","OW406"
"2023-05-03 01:00",3.04039311030966,"Approved","OW406"
"2023-05-03 02:00",3.04039373212287,"Approved","OW406"
"2023-05-03 03:00",3.04139435393608,"Approved","OW406"
"2023-05-03 04:00",3.04139497574928,"Approved","OW406"
"2023-05-03 05:00",3.04239559756249,"Approved","OW406"
"2023-05-03 06:00",3.0433962193757,"Approved","OW406"
"2023-05-03 07:00",3.04339684118891,"Approved","OW406"
"2023-05-03 08:00",3.04439746300211,"Approved","OW406"
"2023-05-03 09:00",3.04439808481532,"Approved","OW406"
"2023-05-03 10:00",3.04339870662853,"Approved","OW406"
"2023-05-03 11:00",3.04339932844174,"Approved","OW406"
"2023-05-03 12:00",3.04339995025494,"Approved","OW406"
"2023-05-03 13:00",3.04340057206815,"Approved","OW406"
"2023-05-03 14:00",3.04340119388136,"Approved","OW406"
"2023-05-03 15:00",3.04340181569457,"Approved","OW406"
"2023-05-03 16:00",3.04140243750777,"Approved","OW406"
"2023-05-03 17:00",3.04140305932098,"Approved","OW406"
"2023-05-03 18:00",3.04140368113419,"Approved","OW406"
"2023-05-03 19:00",3.04040430294739,"Approved","OW406"
"2023-05-03 20:00",3.0394049247606,"Approved","OW406"
"2023-05-03 21:00",3.03840554657381,"Approved","OW406"
"2023-05-03 22:00",3.03840616838702,"Approved","OW406"
"2023-05-03 23:00",3.03740679020022,"Approved","OW406"
"2023-05-04 00:00",3.03740741201343,"Approved","OW406"
"2023-05-04 01:00",3.03740803382664,"Approved","OW406"
"2023-05-04 02:00",3.03740865563985,"Approved","OW406"
"2023-05-04 03:00",3.03640927745305,"Approved","OW406"
"2023-05-04 04:00",3.03840989926626,"Approved","OW406"
"2023-05-04 05:00",3.03841052107947,"Approved","OW406"
"2023-05-04 06:00",3.03841114289267,"Approved","OW406"
"2023-05-04 07:00",3.03841176470588,"Approved","OW406"
"2023-05-04 08:00",3.03941238651909,"Approved","OW406"
"2023-05-04 09:00",3.0394130083323,"Approved","OW406"
"2023-05-04 10:00",3.0394136301455,"Approved","OW406"
"2023-05-04 11:00",3.03941425195871,"Approved","OW406"
"2023-05-04 12:00",3.03841487377192,"Approved","OW406"
"2023-05-04 13:00",3.03741549558513,"Approved","OW406"
"2023-05-04 14:00",3.03541611739833,"Approved","OW406"
"2023-05-04 15:00",3.03541673921154,"Approved","OW406"
"2023-05-04 16:00",3.03441736102475,"Approved","OW406"
"2023-05-04 17:00",3.03341798283796,"Approved","OW406"
"2023-05-04 18:00",3.03341860465116,"Approved","OW406"
"2023-05-04 19:00",3.03341922646437,"Approved","OW406"
"2023-05-04 20:00",3.03241984827758,"Approved","OW406"
"2023-05-04 21:00",3.03142047009078,"Approved","OW406"
"2023-05-04 22:00",3.03042109190399,"Approved","OW406"
"2023-05-04 23:00",3.0294217137172,"Approved","OW406"
"2023-05-05 00:00",3.02842233553041,"Approved","OW406"
"2023-05-05 01:00",3.03042295734361,"Approved","OW406"
"2023-05-05 02:00",3.03042357915682,"Approved","OW406"
"2023-05-05 03:00",3.03042420097003,"Approved","OW406"
"2023-05-05 04:00",3.03042482278324,"Approved","OW406"
"2023-05-05 05:00",3.03042544459644,"Approved","OW406"
"2023-05-05 06:00",3.03142606640965,"Approved","OW406"
"2023-05-05 07:00",3.02942668822286,"Approved","OW406"
"2023-05-05 08:00",3.02942731003606,"Approved","OW406"
"2023-05-05 09:00",3.02842793184927,"Approved","OW406"
"2023-05-05 10:00",3.02842855366248,"Approved","OW406"
"2023-05-05 11:00",3.02742917547569,"Approved","OW406"
"2023-05-05 12:00",3.02442979728889,"Approved","OW406"
"2023-05-05 13:00",3.0214304191021,"Approved","OW406"
"2023-05-05 14:00",3.01943104091531,"Approved","OW406"
"2023-05-05 15:00",3.01843166272852,"Approved","OW406"
"2023-05-05 16:00",3.01743228454172,"Approved","OW406"
"2023-05-05 17:00",3.01643290635493,"Approved","OW406"
"2023-05-05 18:00",3.01443352816814,"Approved","OW406"
"2023-05-05 19:00",3.01443414998135,"Approved","OW406"
"2023-05-05 20:00",3.01443477179455,"Approved","OW406"
"2023-05-05 21:00",3.01343539360776,"Approved","OW406"
"2023-05-05 22:00",3.01243601542097,"Approved","OW406"
"2023-05-05 23:00",3.01243663723417,"Approved","OW406"
"2023-05-06 00:00",3.01143725904738,"Approved","OW406"
"2023-05-06 01:00",3.01043788086059,"Approved","OW406"
"2023-05-06 02:00",3.0094385026738,"Approved","OW406"
"2023-05-06 03:00",3.009439124487,"Approved","OW406"
"2023-05-06 04:00",3.00843974630021,"Approved","OW406"
"2023-05-06 05:00",3.00844036811342,"Approved","OW406"
"2023-05-06 06:00",3.00744098992663,"Approved","OW406"
"2023-05-06 07:00",3.00644161173983,"Approved","OW406"
"2023-05-06 08:00",3.00644223355304,"Approved","OW406"
"2023-05-06 09:00",3.00544285536625,"Approved","OW406"
"2023-05-06 10:00",3.00544347717946,"Approved","OW406"
"2023-05-06 11:00",3.00344409899266,"Approved","OW406"
"2023-05-06 12:00",3.00344472080587,"Approved","OW406"
"2023-05-06 13:00",3.00344534261908,"Approved","OW406"
"2023-05-06 14:00",3.00244596443228,"Approved","OW406"
"2023-05-06 15:00",3.00244658624549,"Approved","OW406"
"2023-05-06 16:00",3.0014472080587,"Approved","OW406"
"2023-05-06 17:00",3.00044782987191,"Approved","OW406"
"2023-05-06 18:00",2.99944845168511,"Approved","OW406"
"2023-05-06 19:00",2.99944907349832,"Approved","OW406"
"2023-05-06 20:00",2.99944969531153,"Approved","OW406"
"2023-05-06 21:00",2.99845031712474,"Approved","OW406"
"2023-05-06 22:00",2.99745093893794,"Approved","OW406"
"2023-05-06 23:00",2.99745156075115,"Approved","OW406"
"2023-05-07 00:00",2.99645218256436,"Approved","OW406"
"2023-05-07 01:00",2.99545280437757,"Approved","OW406"
"2023-05-07 02:00",2.99445342619077,"Approved","OW406"
"2023-05-07 03:00",2.99445404800398,"Approved","OW406"
"2023-05-07 04:00",2.99345466981719,"Approved","OW406"
"2023-05-07 05:00",2.99245529163039,"Approved","OW406"
"2023-05-07 06:00",2.9924559134436,"Approved","OW406"
"2023-05-07 07:00",2.99145653525681,"Approved","OW406"
"2023-05-07 08:00",2.99145715707002,"Approved","OW406"
"2023-05-07 09:00",2.99045777888322,"Approved","OW406"
"2023-05-07 10:00",2.99045840069643,"Approved","OW406"
"2023-05-07 11:00",2.98945902250964,"Approved","OW406"
"2023-05-07 12:00",2.98845964432285,"Approved","OW406"
"2023-05-07 13:00",2.98846026613605,"Approved","OW406"
"2023-05-07 14:00",2.98746088794926,"Approved","OW406"
"2023-05-07 15:00",2.98746150976247,"Approved","OW406"
"2023-05-07 16:00",2.98646213157567,"Approved","OW406"
"2023-05-07 17:00",2.98646275338888,"Approved","OW406"
"2023-05-07 18:00",2.98546337520209,"Approved","OW406"
"2023-05-07 19:00",2.9854639970153,"Approved","OW406"